Time,TemperatureF,DewpointF,PressureIn,WindDirection,WindDirectionDegrees,WindSpeedMPH,WindSpeedGustMPH,Humidity,HourlyPrecipIn,Conditions,Clouds,dailyrainin,SolarRadiationWatts/m^2,SoftwareType,DateUTC
2013-07-02 06:22:00,67.0,56.0,30.06,WNW,296,2.0,-999.0,69,-99.99,,,-99.99,0.000000,,2013-07-02 11:22:00,
2013-07-02 06:33:00,67.0,57.0,30.06,WNW,303,1.0,-999.0,70,-99.99,,,-99.99,5.000000,,2013-07-02 11:33:00,
2013-07-02 06:42:00,67.0,57.0,30.06,WNW,293,1.0,-999.0,71,-99.99,,,-99.99,9.000000,,2013-07-02 11:42:00,
2013-07-02 06:52:00,67.0,57.0,30.07,WNW,289,1.0,-999.0,71,-99.99,,,-99.99,16.000000,,2013-07-02 11:52:00,
2013-07-02 07:11:00,67.0,58.0,30.08,WNW,286,1.0,-999.0,72,-99.99,,,-99.99,26.000000,,2013-07-02 12:11:00,
2013-07-02 07:23:00,67.0,58.0,30.08,WNW,301,1.0,-999.0,72,-99.99,,,-99.99,33.000000,,2013-07-02 12:23:00,
2013-07-02 07:33:00,67.0,58.0,30.08,WNW,298,1.0,-999.0,72,-99.99,,,-99.99,39.000000,,2013-07-02 12:33:00,
2013-07-02 07:43:00,67.0,58.0,30.08,WNW,294,1.0,-999.0,72,-99.99,,,-99.99,49.000000,,2013-07-02 12:43:00,
2013-07-02 07:52:00,68.0,59.0,30.09,ESE,121,2.0,-999.0,72,-99.99,,,-99.99,47.000000,,2013-07-02 12:52:00,
2013-07-02 08:01:00,68.0,59.0,30.09,West,281,2.0,-999.0,72,-99.99,,,-99.99,51.000000,,2013-07-02 13:01:00,
2013-07-02 08:11:00,69.0,60.0,30.09,WNW,283,1.0,-999.0,72,-99.99,,,-99.99,53.000000,,2013-07-02 13:11:00,
2013-07-02 08:22:00,69.0,59.0,30.09,ESE,113,1.0,-999.0,71,-99.99,,,-99.99,53.000000,,2013-07-02 13:22:00,
2013-07-02 08:34:00,70.0,60.0,30.09,WNW,282,1.0,-999.0,71,-99.99,,,-99.99,54.000000,,2013-07-02 13:34:00,
2013-07-02 08:52:00,71.0,61.0,30.10,WNW,283,2.0,-999.0,70,-99.99,,,-99.99,56.000000,,2013-07-02 13:52:00,
2013-07-02 09:01:00,71.0,60.0,30.10,WNW,285,2.0,-999.0,69,-99.99,,,-99.99,58.000000,,2013-07-02 14:01:00,
2013-07-02 09:11:00,71.0,60.0,30.10,WNW,285,2.0,-999.0,69,-99.99,,,-99.99,58.000000,,2013-07-02 14:11:00,
2013-07-02 09:22:00,71.0,60.0,30.10,WNW,285,2.0,-999.0,69,-99.99,,,-99.99,58.000000,,2013-07-02 14:22:00,
2013-07-02 09:33:00,71.0,60.0,30.10,WNW,285,2.0,-999.0,69,-99.99,,,-99.99,58.000000,,2013-07-02 14:33:00,
2013-07-02 13:02:00,81.0,61.0,30.10,ESE,121,1.0,-999.0,51,-99.99,,,-99.99,214.000000,,2013-07-02 18:02:00,
2013-07-02 13:12:00,82.0,61.0,30.09,ENE,67,1.0,-999.0,50,-99.99,,,-99.99,1037.000000,,2013-07-02 18:12:00,
2013-07-02 13:23:00,83.0,62.0,30.09,ESE,121,2.0,-999.0,49,-99.99,,,-99.99,1020.000000,,2013-07-02 18:23:00,
2013-07-02 13:34:00,84.0,62.0,30.09,ESE,119,1.0,-999.0,47,-99.99,,,-99.99,1034.000000,,2013-07-02 18:34:00,
2013-07-02 13:43:00,84.0,60.0,30.08,WNW,298,1.0,-999.0,45,-99.99,,,-99.99,229.000000,,2013-07-02 18:43:00,
2013-07-02 13:53:00,83.0,59.0,30.08,WNW,287,1.0,-999.0,44,-99.99,,,-99.99,1063.000000,,2013-07-02 18:53:00,
2013-07-02 14:01:00,84.0,60.0,30.08,WNW,285,1.0,-999.0,44,-99.99,,,-99.99,225.000000,,2013-07-02 19:01:00,
2013-07-02 14:12:00,84.0,60.0,30.08,WNW,292,1.0,-999.0,44,-99.99,,,-99.99,1083.000000,,2013-07-02 19:12:00,
2013-07-02 14:22:00,83.0,59.0,30.07,NW,307,2.0,-999.0,44,-99.99,,,-99.99,237.000000,,2013-07-02 19:22:00,
2013-07-02 14:34:00,84.0,60.0,30.07,WNW,302,2.0,-999.0,44,-99.99,,,-99.99,1055.000000,,2013-07-02 19:34:00,
2013-07-02 14:43:00,84.0,60.0,30.07,West,272,2.0,-999.0,44,-99.99,,,-99.99,1042.000000,,2013-07-02 19:43:00,
2013-07-02 14:53:00,85.0,60.0,30.06,ESE,108,3.0,-999.0,43,-99.99,,,-99.99,1002.000000,,2013-07-02 19:53:00,
2013-07-02 15:02:00,85.0,60.0,30.06,ESE,106,2.0,-999.0,43,-99.99,,,-99.99,199.000000,,2013-07-02 20:02:00,
2013-07-02 15:11:00,85.0,59.0,30.06,ESE,115,1.0,-999.0,42,-99.99,,,-99.99,993.000000,,2013-07-02 20:11:00,
2013-07-02 15:22:00,84.0,58.0,30.06,West,272,2.0,-999.0,42,-99.99,,,-99.99,162.000000,,2013-07-02 20:22:00,
2013-07-02 15:33:00,84.0,58.0,30.05,NW,308,2.0,-999.0,42,-99.99,,,-99.99,963.000000,,2013-07-02 20:33:00,
2013-07-02 15:43:00,85.0,59.0,30.05,ESE,109,2.0,-999.0,41,-99.99,,,-99.99,977.000000,,2013-07-02 20:43:00,
2013-07-02 15:52:00,86.0,59.0,30.05,ESE,120,3.0,-999.0,40,-99.99,,,-99.99,962.000000,,2013-07-02 20:52:00,
2013-07-02 16:02:00,86.0,58.0,30.05,ESE,122,3.0,-999.0,39,-99.99,,,-99.99,197.000000,,2013-07-02 21:02:00,
2013-07-02 16:11:00,85.0,57.0,30.04,WNW,287,2.0,-999.0,38,-99.99,,,-99.99,847.000000,,2013-07-02 21:11:00,
2013-07-02 16:22:00,86.0,57.0,30.04,East,98,3.0,-999.0,38,-99.99,,,-99.99,828.000000,,2013-07-02 21:22:00,
2013-07-02 16:33:00,86.0,57.0,30.04,West,281,3.0,-999.0,37,-99.99,,,-99.99,812.000000,,2013-07-02 21:33:00,
2013-07-02 16:43:00,86.0,56.0,30.04,ESE,109,3.0,-999.0,36,-99.99,,,-99.99,782.000000,,2013-07-02 21:43:00,
2013-07-02 16:52:00,86.0,56.0,30.04,WNW,296,2.0,-999.0,36,-99.99,,,-99.99,749.000000,,2013-07-02 21:52:00,
2013-07-02 17:01:00,86.0,54.0,30.04,East,98,4.0,-999.0,34,-99.99,,,-99.99,737.000000,,2013-07-02 22:01:00,
2013-07-02 17:11:00,87.0,55.0,30.03,ESE,106,3.0,-999.0,34,-99.99,,,-99.99,733.000000,,2013-07-02 22:11:00,
2013-07-02 17:22:00,86.0,54.0,30.03,WNW,286,4.0,-999.0,33,-99.99,,,-99.99,661.000000,,2013-07-02 22:22:00,
2013-07-02 17:34:00,87.0,54.0,30.03,West,281,2.0,-999.0,33,-99.99,,,-99.99,640.000000,,2013-07-02 22:34:00,
2013-07-02 17:43:00,86.0,53.0,30.03,ESE,113,4.0,-999.0,32,-99.99,,,-99.99,613.000000,,2013-07-02 22:43:00,
2013-07-02 17:53:00,86.0,52.0,30.03,ESE,119,4.0,-999.0,31,-99.99,,,-99.99,580.000000,,2013-07-02 22:53:00,
2013-07-02 18:01:00,86.0,52.0,30.03,WNW,294,2.0,-999.0,31,-99.99,,,-99.99,555.000000,,2013-07-02 23:01:00,
2013-07-02 18:11:00,87.0,52.0,30.03,ESE,112,2.0,-999.0,30,-99.99,,,-99.99,520.000000,,2013-07-02 23:11:00,
2013-07-02 18:22:00,87.0,53.0,30.03,WNW,290,2.0,-999.0,31,-99.99,,,-99.99,492.000000,,2013-07-02 23:22:00,
2013-07-02 18:33:00,87.0,52.0,30.03,ESE,121,2.0,-999.0,30,-99.99,,,-99.99,462.000000,,2013-07-02 23:33:00,
2013-07-02 18:44:00,87.0,52.0,30.03,NW,308,2.0,-999.0,30,-99.99,,,-99.99,420.000000,,2013-07-02 23:44:00,
2013-07-02 18:52:00,86.0,51.0,30.03,ESE,121,3.0,-999.0,30,-99.99,,,-99.99,381.000000,,2013-07-02 23:52:00,
2013-07-02 19:01:00,86.0,51.0,30.03,WNW,293,2.0,-999.0,30,-99.99,,,-99.99,341.000000,,2013-07-03 00:01:00,
2013-07-02 19:11:00,86.0,51.0,30.03,West,281,2.0,-999.0,30,-99.99,,,-99.99,306.000000,,2013-07-03 00:11:00,
2013-07-02 19:22:00,86.0,50.0,30.03,WNW,294,2.0,-999.0,29,-99.99,,,-99.99,267.000000,,2013-07-03 00:22:00,
2013-07-02 19:33:00,86.0,51.0,30.04,WNW,294,0.0,-999.0,30,-99.99,,,-99.99,237.000000,,2013-07-03 00:33:00,
2013-07-02 19:44:00,86.0,51.0,30.04,WNW,296,1.0,-999.0,30,-99.99,,,-99.99,214.000000,,2013-07-03 00:44:00,
2013-07-02 19:52:00,86.0,51.0,30.04,WNW,299,1.0,-999.0,30,-99.99,,,-99.99,179.000000,,2013-07-03 00:52:00,
2013-07-02 20:01:00,86.0,52.0,30.04,WNW,299,0.0,-999.0,31,-99.99,,,-99.99,151.000000,,2013-07-03 01:01:00,
2013-07-02 20:11:00,85.0,51.0,30.04,WNW,291,0.0,-999.0,31,-99.99,,,-99.99,95.000000,,2013-07-03 01:11:00,
2013-07-02 20:22:00,84.0,51.0,30.04,WNW,291,0.0,-999.0,32,-99.99,,,-99.99,62.000000,,2013-07-03 01:22:00,
2013-07-02 20:33:00,84.0,51.0,30.04,WNW,291,0.0,-999.0,32,-99.99,,,-99.99,39.000000,,2013-07-03 01:33:00,
2013-07-02 20:42:00,83.0,51.0,30.04,WNW,291,0.0,-999.0,33,-99.99,,,-99.99,18.000000,,2013-07-03 01:42:00,
2013-07-02 21:02:00,82.0,51.0,30.04,WNW,291,0.0,-999.0,34,-99.99,,,-99.99,5.000000,,2013-07-03 02:02:00,
2013-07-02 21:13:00,82.0,51.0,30.04,WNW,291,0.0,-999.0,34,-99.99,,,-99.99,0.000000,,2013-07-03 02:13:00,
2013-07-02 21:25:00,80.0,51.0,30.05,WNW,291,0.0,-999.0,36,-99.99,,,-99.99,0.000000,,2013-07-03 02:25:00,
2013-07-02 21:43:00,78.0,50.0,30.05,WNW,291,0.0,-999.0,37,-99.99,,,-99.99,0.000000,,2013-07-03 02:43:00,
2013-07-02 21:54:00,78.0,50.0,30.05,WNW,291,0.0,-999.0,38,-99.99,,,-99.99,0.000000,,2013-07-03 02:54:00,
2013-07-02 22:02:00,78.0,50.0,30.05,WNW,291,0.0,-999.0,38,-99.99,,,-99.99,0.000000,,2013-07-03 03:02:00,
2013-07-02 22:12:00,78.0,51.0,30.06,WNW,291,0.0,-999.0,39,-99.99,,,-99.99,0.000000,,2013-07-03 03:12:00,
2013-07-02 22:25:00,77.0,50.0,30.06,WNW,291,0.0,-999.0,39,-99.99,,,-99.99,0.000000,,2013-07-03 03:25:00,
2013-07-02 22:35:00,77.0,51.0,30.06,WNW,291,0.0,-999.0,40,-99.99,,,-99.99,0.000000,,2013-07-03 03:35:00,
2013-07-02 22:45:00,77.0,51.0,30.06,WNW,291,0.0,-999.0,40,-99.99,,,-99.99,0.000000,,2013-07-03 03:45:00,
2013-07-02 22:54:00,77.0,51.0,30.06,WNW,291,0.0,-999.0,41,-99.99,,,-99.99,0.000000,,2013-07-03 03:54:00,
2013-07-02 23:01:00,76.0,51.0,30.07,WNW,291,0.0,-999.0,41,-99.99,,,-99.99,0.000000,,2013-07-03 04:01:00,
2013-07-02 23:11:00,76.0,51.0,30.07,WNW,291,0.0,-999.0,42,-99.99,,,-99.99,0.000000,,2013-07-03 04:11:00,
2013-07-02 23:33:00,76.0,52.0,30.08,WNW,291,0.0,-999.0,43,-99.99,,,-99.99,0.000000,,2013-07-03 04:33:00,
2013-07-02 23:43:00,76.0,52.0,30.08,WNW,291,0.0,-999.0,44,-99.99,,,-99.99,0.000000,,2013-07-03 04:43:00,